Location: Mahannah Oil Field
(37.4664°N, 96.6003°W)
Time: 01:19:04
(UTC+00:00)

A-11 Canister half - Pass Details

Date: 27 January 2021
Orbit: 1524 x 1684 km, 47.3° (Epoch: 25 February)

Event Time Altitude Azimuth Distance (km) Brightness Sun altitude
Rises 23:22:21 0° 287° (WNW) 4,696 12.4 3.3°
Reaches altitude 10° 23:25:34 10° 293° (WNW) 3,727 11.7 2.8°
Maximum altitude 23:34:37 48° 7° (N) 1,982 9.5 1.1°
Drops below altitude 10° 23:43:58 10° 80° (E) 3,841 10.5 -0.6°
Sets 23:47:19 0° 86° (E) 4,849 11.0 -1.2°
